Starlink 31474

operational
NORAD ID: 59304 Int'l Des: 2024-056 Owner: SPXS Country: US Constellation: starlink
LEOCIRCULAR

About Starlink 31474

Description loading...

Live Position

Loading 3D Globe...

Upcoming Passes

Altitude History

Altitude vs Time

uPlot chart will show altitude changes over time

Two-Line Element Set

1 59304U 24056J 25259.04488597 .00010560 00000-0 39320-3 0 9998
2 59304 43.0054 130.1723 0000721 277.1112 82.9657 15.27538916 84520
Epoch: Sep 16, 2025 • Age: 17 hours

Current Status

Altitude 496.0 km
Velocity 7.62 km/s
Sub-Earth Point -43.16°S, 131.63°E
Launch Date Mar 24, 2024
Age 1.4 years
Type internet

Technical Details

Classification Payload
Mass 730.00 kg
Dry Mass 700.00 kg
Total Mass 730.00 kg
Length 0.30 m
Diameter 4.10 m
Span 29.00 m
Shape Box + pan
Manufacturer SPXS
Bus Type Starlink V2M
Phase Status In Orbit
Owner/State SPXS/US

Large Constellations

Loading constellations...